www.pogodaiklimat.ru

Погода и климат >> Архив погоды >> Россия >> Астраханская область >> Харабали


ПОГОДА в Харабали

  • Прогноз погоды в Харабали
  • Монитор погоды в Харабали

АРХИВ ПОГОДЫ в Харабали

Время (UTC), дата Ветер
(напр.,м/с)
 
Видим.   Явления Облачность Т
(С)
Тd
(С)
f
(%)
Тe
(С)
Тes
(С)
Комфортность P
(гПа)
Po
(гПа)
Тmin
(С)
Tmax
(С)
R
(мм)
R24
(мм)
S
(см)
21 17.05 СВ 5
{10}
20 км 8/8 600 м
[Cb calv]
+17.9 +3.8 39 +18 +18 1015.8 1017.7
00 18.05 СВ 4
{10}
20 км 9/6 600 м
[Cb calv Ci fib]
+15.3 +1.6 39 +15 +15 1016.0 1017.9
03 18.05 СВ 3 20 км 10/3 600 м
[Cb calv Ci]
+14.6 +1.4 41 +14 +15 1016.3 1018.2 +14.3
06 18.05 СВ 4
{10}
20 км 10/0
[Ac cast Ci]
+18.2 +0.9 31 +18 +23 1016.2 1018.1
09 18.05 СВ 4 20 км 9/0
[Ac cast Ci fib]
+20.9 -0.5 24 +21 +26 комфорт 1015.6 1017.5
12 18.05 СВ 2 20 км 3/0
[Ac cast Ci fib]
+24.0 -2.6 17 +22 +31 комфорт 1013.9 1015.8
15 18.05 СВ 2 20 км 3/0
[Ci]
+23.3 -2.2 18 +22 +23 комфорт 1012.9 1014.7 +24.1
18 18.05 СВ 2 20 км ясно +18.0 +0.5 31 +19 +19 1013.1 1015.0
21 18.05 СВ 3 20 км ясно +14.9 +0.6 38 +14 +14 1012.8 1014.7
00 19.05 СВ 2 20 км ясно +13.0 +1.0 44 +13 +13 1012.1 1014.0
03 19.05 В 1 20 км 3/0
[Ci fib]
+16.6 +1.9 37 +18 +20 1012.3 1014.2 +11.3
06 19.05 СВ 2 20 км 1/0
[Ci fib]
+23.2 -0.2 21 +22 +34 комфорт 1012.4 1014.2
09 19.05 СЗ 2 20 км 3/0
[Ci fib]
+25.4 +0.2 19 +24 +40 комфорт 1011.6 1013.5
12 19.05 ЮЗ 4 20 км 3/0
[Cs]
+26.7 +3.5 22 +25 +32 комфорт 1011.0 1012.9
15 19.05 З 3 20 км 3/0
[Cs]
+25.2 +6.2 30 +25 +26 комфорт 1011.0 1012.8 +27.3
18 19.05 СЗ 2 20 км 1/0
[Ci fib]
+20.5 +4.3 34 +22 +22 комфорт 1012.1 1014.0
21 19.05 С 2 20 км ясно +16.0 +4.3 46 +16 +16 1012.8 1014.7
00 20.05 З 1 20 км 4/4 600 м
[Sc]
+13.1 +6.4 64 +13 +13 1013.5 1015.4
03 20.05 С 5 20 км 3/0
[Cs]
+13.6 +3.2 49 +12 +13 1015.6 1017.5 +12.3
06 20.05 С 5 20 км 1/0
[Cs]
+18.4 -0.1 29 +18 +24 1016.8 1018.7
09 20.05 С 5
{11}
20 км 1/0
[Cs]
+20.2 -3.8 20 +20 +29 1017.6 1019.5
12 20.05 С 5
{11}
20 км 1/0
[Cs]
+20.8 -5.7 16 +20 +26 1018.1 1020.0
15 20.05 С 3 20 км 4/0
[Cs]
+19.5 -4.9 19 +20 +21 1018.3 1020.2 +21.1
18 20.05 С 2 20 км 1/0
[Ci fib]
+14.4 -1.8 33 +14 +14 1020.2 1022.1
21 20.05 СВ 2 20 км 3/0
[Ci fib]
+12.6 -1.1 39 +12 +12 1020.5 1022.4
00 21.05 СВ 2 20 км 8/0
[Cs]
+10.5 -1.3 44 +10 +10 1021.0 1023.0
03 21.05 штиль 0 20 км 3/0
[Cs]
+13.0 +2.3 48 +13 +15 1022.6 1024.6 +8.2
06 21.05 СВ 3 20 км 3/0
[Ci fib]
+18.3 -4.3 21 +18 +28 1023.5 1025.4
09 21.05 СЗ 2 20 км ясно +21.1 -3.4 19 +20 +38 опасность
простуды
1023.3 1025.2
12 21.05 С 3
{18}
20 км 4/0
[Ci]
+22.2 -5.3 15 +21 +29 комфорт 1022.4 1024.3
15 21.05 С 3 20 км 6/0
[Cs]
+21.4 -4.5 17 +20 +21 1021.9 1023.8 +22.3
18 21.05 В 1 20 км 1/0
[Cs]
+15.5 -2.6 29 +16 +16 1022.6 1024.6
21 21.05 В 1 20 км 3/0
[Cs]
+12.5 -0.3 41 +13 +13 1022.7 1024.7
00 22.05 В 1 20 км 6/0
[Cs]
+10.6 +2.8 58 +11 +11 1022.2 1024.2
03 22.05 штиль 0 20 км 9/0
[Cs]
+13.2 +5.4 59 +13 +15 1022.2 1024.1 +8.8
06 22.05 Ю 2 20 км 8/0
[Cs]
+19.9 +2.4 31 +21 +31 комфорт 1021.6 1023.5
09 22.05 Ю 4 20 км 9/0
[Cs]
+21.9 +1.0 25 +21 +31 комфорт 1019.8 1021.7
12 22.05 ЮВ 4 20 км 9/0
[Cs]
+22.0 +3.7 30 +22 +28 комфорт 1018.0 1019.9
15 22.05 ЮВ 3 20 км 10/0
[Cs]
+20.2 +2.9 32 +21 +22 комфорт 1017.8 1019.7 +23.1
18 22.05 ЮВ 2 20 км 8/0
[Cs]
+16.4 +5.0 47 +17 +17 1018.0 1019.9
21 22.05 ЮВ 2 20 км 6/0
[Cs]
+13.7 +6.5 62 +13 +13 1016.5 1018.4
00 23.05 ЮВ 2 20 км 9/9 600 м
[Sc]
+13.1 +8.7 75 +12 +12 1015.6 1017.5
03 23.05 ЮВ 2 20 км 10/10 600 м
[Sc]
+14.9 +8.9 67 +15 +15 1014.1 1016.0 +13.1
06 23.05 Ю 3 20 км 10/6 600 м
[Cb calv Ac As]
+19.1 +10.4 57 +20 +21 1013.4 1015.3
09 23.05 ЮВ 3 20 км {ливн. осадки} 8/3 600 м
[Cb calv Ac cuf Ci fib]
+22.9 +3.4 28 +23 +29 комфорт 1011.6 1013.5
12 23.05 ЮВ 3 20 км {ливн. осадки} 8/3 600 м
[Cb calv Ac As Ci]
+24.3 +4.6 28 +24 +28 комфорт 1009.4 1011.3
15 23.05 Ю 1
{12}
20 км в посл. час ливневой дождь 8/8 600 м
[Cb calv]
+17.9 +12.2 69 +19 +19 1009.2 1011.1 +24.6 0.5
18 23.05 Ю 1 20 км {ливн. осадки} 8/8 600 м
[Cb calv]
+16.0 +13.0 82 +17 +17 1009.1 1011.0
21 23.05 ЮЗ 2 20 км ясно +15.1 +12.8 86 +15 +15 1008.7 1010.6
00 24.05 ЮЗ 3 20 км 6/0
[Cs]
+15.3 +11.9 80 +15 +15 1008.2 1010.1
03 24.05 ЮЗ 3 20 км 3/0
[Cs]
+15.6 +12.6 82 +15 +17 1008.4 1010.3 +14.6
06 24.05 ЮЗ 4 20 км 9/8 600 м
[Cb calv Ac cast Ci fib]
+19.6 +13.4 67 +21 +22 комфорт 1008.5 1010.4
09 24.05 З 3 20 км 8/8 600 м
[Cb calv]
+23.6 +11.3 46 +25 +28 комфорт 1008.0 1009.9
12 24.05 З 4 20 км 6/6 600 м
[Cb calv]
+26.1 +9.4 35 +27 +29 жарко 1007.6 1009.4
15 24.05 ЮЗ 3 20 км 9/8 600 м
[Cb calv Ci]
+24.8 +11.1 42 +26 +26 жарко 1008.2 1010.0 +26.7
18 24.05 штиль 0 20 км ясно +18.7 +15.0 79 +20 +20 1009.5 1011.4

 

Местоположение метеостанции Харабали (Астраханская область, Россия): широта 47.40 долгота 47.25 высота над уровнем моря -17 м.

В архиве по умолчанию представлена погода в Харабали за последнюю неделю. Архивные данные за месяц целиком и за предыдущие месяцы, начиная с января 2011 года, Вы можете получить, выбрав интересующий диапазон дат из раскрывающегося списка и нажав кнопку "Ввод!".


*Определитесь, кто Вы:
робот инопланетянин человек

Внимание! Время в таблицах - всемирное. Для получения местного времени необходимо прибавить поправку, которая равна 4 ч.

Смотрите также архив погоды в соседних городах и на ближайших метеорологических станциях:

Погода в Досанге (Астраханская область, Россия) (74 км)
Погода в Юсте (Калмыкия, Россия) (76 км)
Погода в Верхнем Баскунчаке (Астраханская область, Россия) (99 км)
Погода в Черный Яр (Астраханская область, Россия) (113 км)
Погода в Жанауштогане (Атырауская область, Казахстан) (129 км)
Погода в Астрахани (Астраханская область, Россия) (136 км)
Погода в Утте (Калмыкия, Россия) (148 км)
Погода в Урде (Западно-Казахстанская область, Казахстан) (153 км)
Погода в Зеленге (Астраханская область, Россия) (171 км)
Погода в Ганюшкино (Атырауская область, Казахстан) (177 км)

Пояснения к столбцам:

Ветер - указаны скорость ветра в м/с - средняя за 10 мин, порывы в срок и между сроками (в фигурных скобках) и направление, откуда дует ветер: С - северный, СВ - северо-восточный, В - восточный, ЮВ - юго-восточный, Ю - южный, ЮЗ - юго-западный, З - западный, СЗ - северо-западный.
Видимость - горизонтальная дальность видимости в метрах или километрах. При видимости от 1 до 10 км при отсутствии осадков обычно наблюдается дымка, при ухудшении видимости до 1 км и менее - туман. В сухую погоду видимость может ухудшаться дымом, пылью или мглою.
Явления - указаны атмосферные явления, наблюдавшиеся в срок или в последний час перед сроком; фигурными скобками обозначены явления, наблюдавшиеся между сроками (за 1-3 часа до срока); квадратными скобками обозначены град или гололедные отложения с указанием их диаметра в мм.
Облачность - указаны через наклонную черту общая и нижняя облачность в баллах и высота нижней границы облаков в метрах; квадратными скобками обозначены формы облаков: Ci - перистые, Cs - перисто-слоистые, Cc - перисто-кучевые, Ac - высококучевые, As - высокослоистые, Sc - слоисто-кучевые, Ns - слоисто-дождевые, Cu - кучевые, Cb - кучево-дождевые. Подробнее классификацию облаков см. в Атласе облаков (PDF).
T - Температура воздуха - температура, измеренная на высоте 2 м над землей.
Td - Температура точки росы - температура, при понижении до которой содержащийся в воздухе водяной пар достигнет насыщения.
f - Относительная влажность воздуха - влажноcть воздуха, измеренная на высоте 2 м над землей.
Te - Эффективная температура - температура, которую ощущает одетый по сезону человек в тени. Характеристика душности погоды. При расчете учитывается влияние влажности воздуха и скорости ветра на теплоощущения человека.
Tes - Эффективная температура на солнце - температура, которую ощущает человек, с поправкой на солнечный нагрев. Характеристика знойности погоды. Зависит от высоты солнца над горизонтом, облачности и скорости ветра. Ночью, в пасмурную погоду, а также при ветре 12 м/с и более поправка равна нулю.
P - Атмосферное давление - приведенное к уровню моря атмосферное давление.
Po - Атмосферное давление - измеренное на уровне метеостанции атмосферное давление.
Tmin - Минимальная температура - минимум температуры воздуха на высоте 2 м над землей.
Tmax - Максимальная температура - максимум температуры воздуха на высоте 2 м над землей.
R - Количество осадков - Количество выпавших осадков за период времени, мм. При наведении курсора мыши на число - период времени, за который выпало указанное количество осадков.
R24 - Количество осадков - Количество выпавших осадков за 24 часа, мм.
S - Снежный покров - Высота снежного покрова, см. При наведении курсора мыши на число - состояние снежного покрова и степень покрытия местности в баллах.